Regional Weather Roundup
Issued by NWS

Home | Current Version | Previous Version | Graphics & Text | Print | Product List | Glossary On
Versions: 1 2 3 4 5 6 7 8 9 10 11 12 13 14 15 16 17 18 19 20 21 22 23 24 25 26 27 28 29 30 31 32 33 34 35 36 37 38 39 40 41 42 43 44 45 46 47 48 49 50
000
ASUS43 KDMX 280103
RWRIA

WEATHER ROUNDUP FOR IOWA
NATIONAL WEATHER SERVICE DES MOINES IA
800 PM CDT TUE SEP 27 2016

NOTE: "FAIR" INDICATES FEW OR NO CLOUDS BELOW 12,000 FEET WITH NO
SIGNIFICANT WEATHER AND/OR OBSTRUCTIONS TO VISIBILITY.

* - THESE STATIONS ARE NOT NWS STATIONS...THUS NOT UNDER NWS
QUALITY CONTROL.  THEY ALSO DO NOT REPORT WEATHER SUCH
AS PRECIPITATION OR FOG.

IAZ001>003-012>014-020>022-031>034-043>046-280200-
   NORTHWEST IOWA

CITY           SKY/WX    TMP DP  RH WIND       PRES   REMARKS
CARROLL *      CLEAR     61  46  59 W7        29.83S
CHEROKEE *     CLEAR     62  45  54 NW5       29.84S
DENISON *      CLEAR     63  45  51 W5        29.83S
LE MARS *      CLEAR     61  48  63 NW6       29.86R
ORANGE CITY *  CLEAR     64  45  48 N7        29.86R
SHELDON *      CLEAR     57  45  62 NW6       29.84S
SIOUX CITY     CLEAR     66  47  50 NW5       29.84F
SPENCER        CLEAR     56  43  61 NW8       29.84S
STORM LAKE *   CLEAR     63  45  51 NW8       29.84F
$$

IAZ055>058-069>071-079>083-090>094-280200-
   SOUTHWEST IOWA

CITY           SKY/WX    TMP DP  RH WIND       PRES   REMARKS
ATLANTIC *     CLEAR     61  46  59 W6        29.85S
AUDUBON *      CLEAR     61  46  59 CALM      29.86S
CLARINDA *       N/A     57  52  82 MISG      29.86F
COUNCIL BLFS * CLEAR     68  46  45 NW6       29.85F
CRESTON *      CLEAR     61  46  59 W7        29.86S
HARLAN  *      CLEAR     57  46  67 W5        29.88S
LAMONI         CLEAR     64  47  53 W7        29.84F
RED OAK *      CLEAR     63  48  59 W3        29.85F
SHENANDOAH *   CLEAR     61  52  72 SW3       29.85F
$$

IAZ047>049-059>061-072>074-084-280200-
   CENTRAL IOWA

CITY           SKY/WX    TMP DP  RH WIND       PRES   REMARKS
AMES           PTCLDY    64  47  53 W7        29.80S
ANKENY *         N/A    N/A N/A N/A MISG        N/A
BOONE *        PTCLDY    66  45  45 W7        29.80S
CHARITON *       N/A     63  46  55 W7        29.82S
DES MOINES     PTCLDY    65  46  50 W5        29.81S
GRINNELL*      CLOUDY    61  45  56 W5        29.80F
KNOXVILLE *    MOCLDY    66  43  42 W6        29.80S
MARSHALLTOWN   PTCLDY    63  43  48 W3        29.78S
NEWTON *       PTCLDY    64  43  45 W6        29.79S
PELLA *        PTCLDY    65  47  53 W5        29.81S
PERRY *          N/A     62  44  51 W7        29.82F
$$

IAZ004>006-015-016-023>025-035-036-280200-
   NORTH CENTRAL IOWA

CITY           SKY/WX    TMP DP  RH WIND       PRES   REMARKS
ALGONA *       CLOUDY    64  32  29 NW7       29.82R
CLARION *      PTCLDY    63  41  45 N8        29.80S
ESTHERVILLE    CLOUDY    60  33  36 NW7       29.83R
FORT DODGE *   PTCLDY    64  39  39 W3        29.82S
MASON CITY     PTCLDY    58  37  45 N8        29.81R
FOREST CITY *    N/A     59  34  38 N12       29.81R
WEBSTER CITY * PTCLDY    63  45  51 W7        29.78S
IOWA FALLS *     N/A     63  42  45 W5        29.80S
$$

IAZ007>011-017>019-026>030-037>042-050>054-066-280200-
   NORTHEAST IOWA

CITY           SKY/WX    TMP DP  RH WIND       PRES   REMARKS
CEDAR RAPIDS   PTCLDY    60  42  51 W7        29.77S
CHARLES CITY * CLOUDY    59  36  41 N7        29.80R
CLINTON *      MOCLDY    58  38  47 W5        29.77S
DECORAH *      CLOUDY    57  41  54 N9G16     29.79R
DUBUQUE        CLOUDY    58  40  51 NW7       29.78R
MONTICELLO *   CLOUDY    59  37  44 CALM      29.77R
OELWEIN *      CLOUDY    59  37  44 N5        29.79R
WATERLOO       CLOUDY    62  33  33 NW5       29.77R
$$

IAZ064-065-067-068-078-280200-
   EAST CENTRAL IOWA

CITY           SKY/WX    TMP DP  RH WIND       PRES   REMARKS
DAVENPORT      MOCLDY    60  37  42 W5        29.78S
IOWA CITY      MOCLDY    62  42  47 W3        29.79S
MUSCATINE *    PTCLDY    63  43  48 W5        29.78S
QUAD CITIES    MOCLDY    61  43  51 CALM      29.76F
$$

IAZ062-063-075>077-085>089-095>099-280200-
   SOUTHEAST IOWA

CITY           SKY/WX    TMP DP  RH WIND       PRES   REMARKS
BURLINGTON     CLEAR     61  45  55 W3        29.79S
FAIRFIELD *    MOCLDY    64  41  42 W5        29.80R
FORT MADISON * CLEAR     64  43  45 SW3       29.81S
KEOKUK *       CLEAR     63  46  55 W5        29.80S
OSKALOOSA *      N/A     62  43  50 W7        29.80S
CENTERVILLE *    N/A     61  45  55 W7        29.84S
OTTUMWA        PTCLDY    62  43  49 SW5       29.80R
WASHINGTON *     N/A    N/A N/A N/A MISG        N/A
$$

ABBREVIATIONS USED IN REMARKS
   TC - TEMPERATURES IN CELSIUS
  WCI - WIND CHILL INDEX
   HX - HEAT INDEX
  VSB - VISIBILITY
$$





USA.gov is the U.S. government's official web portal to all federal, state and local government web resources and services.